Location: Newark
(54.6833°N, 25.2833°E)
Time: 02:50:38
(UTC+00:00)

A-11 Canister half - Pass Details

Date: 29 January 2021
Orbit: 1525 x 1684 km, 47.3° (Epoch: 05 March)

Event Time Altitude Azimuth Distance (km) Brightness Sun altitude
Rises 16:50:33 0° 279° (W) 4,717 13.0 -17.0°
Reaches altitude 10° 16:53:49 10° 272° (W) 3,749 12.3 -17.5°
Maximum altitude 17:02:18 39° 209° (SSW) 2,245 10.1 -18.7°
Drops below altitude 10° 17:11:02 10° 146° (SE) 3,853 10.8 -20.0°
Enters shadow 17:13:20 - 141° (SE) 4,524 11.1 -20.3°
